When you browse on this site, cookies collect data to enhance your experience and personalize the content and advertising you see.
Visit our Privacy Policy to learn more. By continuing to use the site, you agree to this use of cookies and data.

Previsão horária em Eger

Hoje, 5 Agosto, Quarta-feira

Tempo Temperatura Precipitação Vento Pressão Humidade
00:00 +20°C° 1.8 mm 2 m/s 741 mmHg 92%
01:00 +20°C° 0 mm 3 m/s 741 mmHg 93%
02:00 +19°C° 0.6 mm 3 m/s 741 mmHg 92%
03:00 +19°C° 0.6 mm 3 m/s 741 mmHg 92%
04:00 +19°C° 0.6 mm 2 m/s 742 mmHg 92%
05:00 +19°C° 0 mm 3 m/s 742 mmHg 90%
06:00 +20°C° 0 mm 3 m/s 742 mmHg 88%
07:00 +20°C° 0 mm 4 m/s 742 mmHg 85%
08:00 +21°C° 0 mm 4 m/s 742 mmHg 80%
09:00 +23°C° 0 mm 5 m/s 743 mmHg 75%
10:00 +24°C° 0 mm 6 m/s 743 mmHg 69%
11:00 +26°C° 0 mm 6 m/s 743 mmHg 67%
12:00 +26°C° 0 mm 5 m/s 743 mmHg 65%
13:00 +27°C° 0 mm 5 m/s 743 mmHg 62%
14:00 +27°C° 0 mm 5 m/s 743 mmHg 63%
15:00 +26°C° 0 mm 5 m/s 743 mmHg 64%
16:00 +26°C° 0 mm 5 m/s 743 mmHg 64%
17:00 +25°C° 0 mm 5 m/s 743 mmHg 68%
18:00 +23°C° 0 mm 5 m/s 743 mmHg 71%
19:00 +21°C° 0 mm 5 m/s 743 mmHg 75%
20:00 +21°C° 0.3 mm 5 m/s 744 mmHg 76%
21:00 +20°C° 0.3 mm 5 m/s 744 mmHg 78%
22:00 +20°C° 0.3 mm 5 m/s 744 mmHg 80%
23:00 +20°C° 0 mm 4 m/s 744 mmHg 81%

Amanhã, 6 Agosto, Quinta-feira

Tempo Temperatura Precipitação Vento Pressão Humidade
00:00 +20°C° 0 mm 4 m/s 744 mmHg 83%
01:00 +19°C° 0 mm 4 m/s 744 mmHg 85%
02:00 +19°C° 0 mm 4 m/s 744 mmHg 86%
03:00 +19°C° 0 mm 4 m/s 744 mmHg 88%
04:00 +19°C° 0 mm 3 m/s 745 mmHg 89%
05:00 +20°C° 0 mm 4 m/s 745 mmHg 85%
06:00 +21°C° 0 mm 4 m/s 745 mmHg 81%
07:00 +22°C° 0 mm 4 m/s 746 mmHg 77%
08:00 +25°C° 0 mm 5 m/s 746 mmHg 69%
09:00 +26°C° 0 mm 5 m/s 746 mmHg 62%
10:00 +28°C° 0 mm 5 m/s 747 mmHg 55%
11:00 +29°C° 0 mm 5 m/s 746 mmHg 51%
12:00 +30°C° 0 mm 5 m/s 746 mmHg 48%
13:00 +30°C° 0 mm 5 m/s 746 mmHg 44%
14:00 +30°C° 0 mm 5 m/s 746 mmHg 46%
15:00 +30°C° 0 mm 4 m/s 746 mmHg 47%
16:00 +30°C° 0 mm 4 m/s 746 mmHg 48%
17:00 +29°C° 0 mm 3 m/s 746 mmHg 54%
18:00 +27°C° 0 mm 2 m/s 746 mmHg 59%
19:00 +25°C° 0 mm 2 m/s 746 mmHg 64%
20:00 +24°C° 0 mm 2 m/s 746 mmHg 66%
21:00 +24°C° 0 mm 3 m/s 747 mmHg 68%
22:00 +22°C° 0 mm 3 m/s 747 mmHg 70%
23:00 +22°C° 0 mm 3 m/s 747 mmHg 71%

Depois de amanhã, 7 Agosto, Sexta-feira

Tempo Temperatura Precipitação Vento Pressão Humidade
00:00 +21°C° 0 mm 3 m/s 747 mmHg 73%
01:00 +21°C° 0 mm 3 m/s 747 mmHg 75%
02:00 +21°C° 0 mm 3 m/s 747 mmHg 75%
03:00 +20°C° 0 mm 3 m/s 747 mmHg 75%
04:00 +20°C° 0 mm 3 m/s 747 mmHg 76%
05:00 +21°C° 0 mm 3 m/s 748 mmHg 73%
06:00 +22°C° 0 mm 3 m/s 748 mmHg 70%
07:00 +25°C° 0 mm 3 m/s 748 mmHg 67%
08:00 +26°C° 0 mm 3 m/s 748 mmHg 62%
09:00 +28°C° 0 mm 3 m/s 748 mmHg 56%
10:00 +29°C° 0 mm 3 m/s 748 mmHg 51%
11:00 +30°C° 0 mm 3 m/s 748 mmHg 48%
12:00 +31°C° 0 mm 3 m/s 748 mmHg 45%
13:00 +31°C° 0 mm 3 m/s 748 mmHg 43%
14:00 +31°C° 0 mm 3 m/s 747 mmHg 44%
15:00 +31°C° 0 mm 3 m/s 747 mmHg 45%
16:00 +31°C° 0 mm 3 m/s 747 mmHg 46%
17:00 +29°C° 0 mm 2 m/s 747 mmHg 53%
18:00 +27°C° 0 mm 2 m/s 747 mmHg 60%
19:00 +25°C° 0 mm 2 m/s 746 mmHg 66%
20:00 +25°C° 0 mm 2 m/s 747 mmHg 66%
21:00 +24°C° 0 mm 2 m/s 747 mmHg 66%
22:00 +23°C° 0 mm 2 m/s 747 mmHg 66%
23:00 +23°C° 0 mm 2 m/s 747 mmHg 70%

8 Agosto, Sábado

Tempo Temperatura Precipitação Vento Pressão Humidade
00:00 +23°C° 0 mm 2 m/s 747 mmHg 73%
01:00 +21°C° 0 mm 2 m/s 747 mmHg 76%
02:00 +21°C° 0 mm 2 m/s 747 mmHg 78%
03:00 +21°C° 0 mm 2 m/s 747 mmHg 79%
04:00 +20°C° 0 mm 2 m/s 747 mmHg 81%
05:00 +21°C° 0 mm 2 m/s 747 mmHg 78%
06:00 +23°C° 0 mm 2 m/s 747 mmHg 75%
07:00 +24°C° 0 mm 2 m/s 747 mmHg 72%
08:00 +26°C° 0 mm 2 m/s 747 mmHg 65%
09:00 +28°C° 0 mm 2 m/s 747 mmHg 59%
10:00 +30°C° 0 mm 2 m/s 747 mmHg 53%
11:00 +30°C° 0 mm 2 m/s 747 mmHg 50%
12:00 +31°C° 0 mm 2 m/s 747 mmHg 48%
13:00 +32°C° 0 mm 1 m/s 746 mmHg 46%
14:00 +32°C° 0 mm 1 m/s 746 mmHg 45%
15:00 +32°C° 0 mm 1 m/s 746 mmHg 45%
16:00 +32°C° 0 mm 1 m/s 745 mmHg 44%
17:00 +30°C° 0 mm 1 m/s 745 mmHg 50%
18:00 +28°C° 0 mm 1 m/s 745 mmHg 56%
19:00 +25°C° 0 mm 0 m/s 745 mmHg 62%
20:00 +26°C° 0.4 mm 1 m/s 745 mmHg 67%
21:00 +25°C° 0.4 mm 1 m/s 745 mmHg 71%
22:00 +24°C° 0.4 mm 2 m/s 745 mmHg 76%
23:00 +23°C° 0.7 mm 2 m/s 745 mmHg 79%

9 Agosto, Domingo

Tempo Temperatura Precipitação Vento Pressão Humidade
00:00 +21°C° 0.7 mm 2 m/s 745 mmHg 81%
01:00 +21°C° 0.7 mm 2 m/s 745 mmHg 84%
02:00 +20°C° 0 mm 2 m/s 745 mmHg 85%
03:00 +20°C° 0 mm 2 m/s 745 mmHg 86%
04:00 +19°C° 0 mm 3 m/s 744 mmHg 88%
05:00 +20°C° 0 mm 3 m/s 745 mmHg 84%
06:00 +21°C° 0 mm 3 m/s 745 mmHg 81%
07:00 +22°C° 0 mm 3 m/s 745 mmHg 77%
08:00 +24°C° 0 mm 3 m/s 745 mmHg 70%
09:00 +26°C° 0 mm 3 m/s 745 mmHg 64%
10:00 +28°C° 0 mm 3 m/s 745 mmHg 57%
11:00 +29°C° 0 mm 3 m/s 745 mmHg 54%
12:00 +29°C° 0 mm 3 m/s 745 mmHg 51%
13:00 +30°C° 0 mm 3 m/s 744 mmHg 48%
14:00 +30°C° 0 mm 2 m/s 744 mmHg 48%
15:00 +30°C° 0 mm 2 m/s 744 mmHg 48%
16:00 +30°C° 0 mm 2 m/s 744 mmHg 48%
17:00 +28°C° 0 mm 1 m/s 744 mmHg 54%
18:00 +26°C° 0 mm 1 m/s 744 mmHg 60%
19:00 +23°C° 0 mm 0 m/s 744 mmHg 66%
20:00 +24°C° 0 mm 1 m/s 744 mmHg 68%
21:00 +24°C° 0 mm 1 m/s 744 mmHg 70%
22:00 +23°C° 0 mm 2 m/s 744 mmHg 73%
23:00 +23°C° 0.1 mm 2 m/s 744 mmHg 75%

10 Agosto, Segunda-feira

Tempo Temperatura Precipitação Vento Pressão Humidade
00:00 +21°C° 0.1 mm 2 m/s 744 mmHg 77%
01:00 +21°C° 0.1 mm 2 m/s 744 mmHg 79%
02:00 +20°C° 0.1 mm 2 m/s 744 mmHg 80%
03:00 +20°C° 0.1 mm 2 m/s 744 mmHg 80%
04:00 +20°C° 0.1 mm 2 m/s 744 mmHg 81%
05:00 +21°C° 0.1 mm 2 m/s 744 mmHg 78%
06:00 +23°C° 0.1 mm 2 m/s 744 mmHg 75%
07:00 +24°C° 0.1 mm 2 m/s 744 mmHg 71%
08:00 +26°C° 0 mm 2 m/s 744 mmHg 65%
09:00 +27°C° 0 mm 2 m/s 745 mmHg 59%
10:00 +29°C° 0 mm 2 m/s 745 mmHg 52%
11:00 +30°C° 0 mm 2 m/s 744 mmHg 49%
12:00 +30°C° 0 mm 2 m/s 744 mmHg 46%
13:00 +31°C° 0 mm 2 m/s 744 mmHg 43%
14:00 +31°C° 0 mm 2 m/s 744 mmHg 45%
15:00 +30°C° 0 mm 2 m/s 744 mmHg 46%
16:00 +30°C° 0 mm 2 m/s 743 mmHg 48%
17:00 +28°C° 0 mm 2 m/s 744 mmHg 54%
18:00 +27°C° 0 mm 2 m/s 744 mmHg 60%
19:00 +25°C° 0 mm 3 m/s 744 mmHg 65%
20:00 +24°C° 0 mm 3 m/s 744 mmHg 68%
21:00 +23°C° 0 mm 2 m/s 744 mmHg 70%
22:00 +21°C° 0 mm 2 m/s 744 mmHg 72%
23:00 +21°C° 0 mm 2 m/s 744 mmHg 74%
Mostrar mais